Вернуться в каталог

VIASAT 3-F2

АктивенСвязьGEO
NORAD 66454·PAYLOAD·🇺🇸 United States

Запущен Nov 13, 2025 с Cape Canaveral Space Force Station

Loading…

TLE

СвежийSource: Space-Track

Эпоха: Sep 14, 2026, 13:25 UTC

1 66454U 25261A   26257.55945750 -.00000241  00000-0  00000-0 0  9991
2 66454   0.0060 106.3723 0000988 161.0490 208.5120  1.00272495  3697

Отслеживайте VIASAT 3-F2 в реальном времени с AllMySat

Download on the App Store